[[{"header":{"parameterUnit":"m.s-1","parameterCategory":1,"la1":30.2992,"la2":30.254,"lo1":-89.0895,"lo2":-89.0443,"dy":0.0025,"dx":0.0025,"nx":19,"ny":19,"refTime":"2026-05-10T03:00:00:Z","depth":0,"parameterNumber":2,"parameterNumberName":"U-component_of_WINDS"},"data":[0,0,0,-1.9585,-1.9586,-1.9621,-1.9621,-1.9678,-1.9678,0,0,0,0,0,0,0,0,0,0,0,-1.9582,-1.9582,-1.9585,-1.9586,-1.9621,-1.9621,-1.9678,-1.9678,0,0,0,0,0,0,0,0,0,0,0,-1.9582,-1.9582,-1.9583,-1.9586,-1.9621,-1.9621,-1.9677,-1.9647,0,0,0,0,0,0,0,0,0,0,-1.9611,-1.9614,-1.9582,-1.9583,-1.9587,-1.9621,-1.9621,-1.9645,-1.9649,-1.9667,0,-1.9685,0,-1.9683,-1.9683,-1.9683,0,0,0,-1.9581,-1.9612,-1.9615,-1.9583,-1.9587,-1.9621,-1.9604,-1.9647,-1.9651,-1.9672,-1.9685,-1.9687,-1.9683,-1.9683,-1.9684,-1.9806,-1.9807,0,0,-1.9579,-1.9592,-1.9612,-1.9618,-1.9613,-1.9603,-1.9605,-1.9649,-1.9665,-1.9686,-1.9688,-1.9684,-1.9684,-1.9684,-1.9805,-1.9806,0,0,0,-1.9577,-1.9591,-1.9592,-1.9616,-1.9621,-1.9604,-1.9606,-1.9663,-1.9663,-1.9689,-1.9685,-1.9684,-1.9685,-1.9804,-1.9806,-1.9858,0,0,0,-1.9576,-1.9589,-1.9592,-1.96,-1.9621,-1.9642,-1.9619,-1.966,-1.9664,-1.9685,-1.9684,-1.9686,-1.9803,-1.9805,-1.9854,-1.988,0,0,0,-1.9577,-1.9589,-1.9597,-1.9601,-1.9616,-1.9641,-1.9643,-1.966,-1.9662,-1.9683,-1.9686,-1.9803,-1.9805,-1.9851,-1.9875,-1.9916,0,0,0,-1.9582,-1.9643,-1.9598,-1.9664,-1.9616,-1.9674,-1.9643,-1.9685,-1.971,-1.9684,-1.9803,-1.9805,-1.985,-1.9872,-1.9913,-1.9951,-1.9969,0,0,-1.9665,-1.9653,-1.9691,-1.9652,-1.9721,-1.9668,-1.9745,-1.9755,-1.9745,-1.9786,-1.9789,-1.9856,-1.9875,-1.9915,-2.0066,-2.008,0,0,0,-1.9722,-1.9749,-1.9764,-1.9788,-1.9798,-1.9809,-1.9806,-1.981,-1.9844,-1.9769,-1.9881,-1.9892,-1.9916,-1.9933,-1.9945,-1.9964,-1.9815,-1.9814,-1.9814,-1.9856,-1.9841,-1.9903,-1.9893,-1.9917,-1.9914,-1.9932,-1.9937,-1.9915,-1.9942,-1.9954,-2.0047,-2.0069,-2.0078,-2.0098,-1.9974,-1.9974,-1.9975,-1.9975,-1.9975,-2.0011,-1.9982,-2.0031,-2.0016,-2.0057,-2.0058,-2.0041,-2.0078,-2.0037,-2.0056,-2.0012,-2.0094,-2.011,-1.9979,-1.9978,-1.9977,-1.9977,-1.9977,-2.0061,-2.0075,-2.008,-2.0114,-2.0142,-2.0131,-2.0167,-2.0152,-2.0138,-2.0158,-2.0168,-2.0167,-2.0164,-2.0164,-2.0165,-2.0165,-2.0165,-2.0165,-2.0166,-2.0146,-2.015,-2.0183,-2.02,-2.0214,-2.0231,-2.0231,-2.0244,-2.0255,-2.0241,-2.0241,-2.0216,-2.0105,-2.0076,-2.0171,-2.017,-2.0169,-2.0169,-2.0168,-2.0271,-2.0241,-2.0291,-2.0306,-2.0325,-2.0354,-2.0335,-2.0365,-2.0374,-2.0393,-2.0365,-2.0285,-2.0271,-2.0261,-2.0238,-2.0368,-2.0368,-2.0368,-2.0368,-2.0342,-2.0334,-2.0383,-2.0407,-2.0429,-2.0417,-2.0476,-2.0477,-2.0474,-2.0479,-2.0458,-2.0426,-2.0417,-2.0408,-2.0395,-2.0373,-2.0535,-2.0535,-2.0535,-2.0417,-2.0411,-2.0463,-2.0459,-2.0474,-2.0487,-2.0542,-2.0571,-2.0561,-2.0541,-2.0482,-2.0475,-2.0423,-2.0407,-2.0384,-2.0364,-2.0323,0,0]},{"header":{"parameterUnit":"m.s-1","parameterCategory":1,"la1":30.2992,"la2":30.254,"lo1":-89.0895,"lo2":-89.0443,"dy":0.0025,"dx":0.0025,"nx":19,"ny":19,"refTime":"2026-05-10T03:00:00:Z","depth":0,"parameterNumber":3,"parameterNumberName":"V-component_of_WINDS"},"data":[0,0,0,1.9167,1.9167,1.9168,1.9168,1.9158,1.9157,0,0,0,0,0,0,0,0,0,0,0,1.9161,1.916,1.9167,1.9167,1.9168,1.9168,1.9158,1.9157,0,0,0,0,0,0,0,0,0,0,0,1.9161,1.916,1.916,1.9167,1.9168,1.9168,1.9158,1.9161,0,0,0,0,0,0,0,0,0,0,1.9162,1.915,1.916,1.916,1.9167,1.9168,1.9168,1.9161,1.9161,1.9153,0,1.9144,0,1.9151,1.9156,1.9156,0,0,0,1.9171,1.915,1.9156,1.916,1.9167,1.9168,1.9169,1.9161,1.916,1.9152,1.9144,1.9144,1.915,1.9156,1.9156,1.9097,1.9097,0,0,1.9171,1.9157,1.9157,1.9156,1.9155,1.9169,1.9169,1.9161,1.9151,1.9144,1.9144,1.915,1.9156,1.9156,1.9098,1.9097,0,0,0,1.9168,1.9157,1.9163,1.9156,1.9157,1.9168,1.9168,1.9152,1.9155,1.9144,1.915,1.9156,1.9155,1.9098,1.9098,1.9061,0,0,0,1.9168,1.9155,1.9163,1.9154,1.9157,1.9154,1.9159,1.9155,1.9155,1.915,1.9156,1.9155,1.9099,1.9098,1.9063,1.9046,0,0,0,1.9163,1.9154,1.9152,1.9153,1.9153,1.9155,1.9158,1.9156,1.9159,1.9156,1.9155,1.9099,1.9098,1.9065,1.9049,1.9027,0,0,0,1.9152,1.9118,1.9151,1.9116,1.9153,1.9132,1.9158,1.9143,1.9136,1.9156,1.9099,1.9098,1.9066,1.9051,1.9029,1.9007,1.8996,0,0,1.9101,1.9111,1.9092,1.9122,1.9092,1.9133,1.9097,1.9104,1.9116,1.9103,1.9102,1.9062,1.9049,1.9028,1.8939,1.8931,0,0,0,1.9071,1.9057,1.9052,1.9046,1.9051,1.9055,1.9069,1.9072,1.9062,1.9107,1.9049,1.9041,1.9029,1.9019,1.9012,1.9003,1.9092,1.9092,1.9092,1.8978,1.8997,1.8967,1.8987,1.898,1.8996,1.8993,1.9,1.9019,1.9005,1.9001,1.8946,1.8933,1.8928,1.8919,1.8991,1.8991,1.8991,1.899,1.8906,1.889,1.8919,1.89,1.8921,1.8905,1.892,1.8934,1.8923,1.895,1.894,1.8968,1.8918,1.8911,1.8988,1.8988,1.8989,1.8989,1.8989,1.8848,1.8844,1.8849,1.8843,1.8837,1.8858,1.8846,1.8865,1.8882,1.8872,1.8871,1.8872,1.8876,1.8871,1.887,1.887,1.887,1.887,1.887,1.8785,1.8793,1.8781,1.8785,1.8785,1.8787,1.8804,1.8804,1.8809,1.8823,1.8823,1.8845,1.8909,1.8926,1.8867,1.8867,1.8868,1.8868,1.8868,1.8706,1.8728,1.8709,1.8709,1.8717,1.8711,1.8735,1.8734,1.8737,1.873,1.8755,1.8799,1.8811,1.8817,1.883,1.875,1.875,1.875,1.875,1.8658,1.8666,1.8653,1.8651,1.8652,1.8673,1.8653,1.8666,1.8683,1.8687,1.8701,1.872,1.8726,1.8734,1.8742,1.8755,1.8657,1.8657,1.8657,1.8611,1.862,1.8599,1.8618,1.8626,1.8632,1.8614,1.8612,1.8635,1.8654,1.869,1.8694,1.8725,1.8734,1.8753,1.8765,1.8789,0,0]}]]